Погода в Кашире

Погода в Кашире : погода сейчас, прогноз погоды и архив. Всё, что Вы хотите узнать о погоде в Кашире!

Поиск расширенной информации на нашем сайте:

Другие новости

Новости СМИ2

Главная страница сайта

Новости сайта

03.07.2017

Напоминаем, что на нашем специализированном сайте Метеоцентр.Азия вы можете получить высокодетализированные автоматические прогнозы погоды по пунктам России, СНГ и мира в авиационном формате (включающие направление и скорость ветра, видимость, явления погоды, количество и форму облачности, нижнюю и верхнюю границу облачности).


Погода в Кашире - сегодня

Время (UTC), дата Ветер
(°,м/с) 
Видим.   Явления Облачность Т
(°С)
Тd
(°С)
f(%) Тe
(°С)
Pmin
(гПа)
dP
(гПа)
Po
(мм)
O2
(г/м3)
Тmin Tmax R s Состояние
почвы
03 15.08.17 010 (С) 10 км  в посл. час ливневой дождь{гроза}  10/10 300 м кучево-дожд. 
[Cb cap]
+16.8 +16 95 +29  1021.6  1.4  747  280  +16.1    10     
06 15.08.17 020 (С) 20000 м  {гроза, ливн. осадки}  9/9 300 м кучево-дожд. 
[Cb cap]
+18.4 +15.2 82 +28  1022.7  1.2  748  279  +16.1    10    влажная 
09 15.08.17 030 (СВ) 20000 м    6/6 300 м кучево-дожд. 
[Cb calv]
+22.8 +12.7 53 +28  1023.2  0.8  748  276           
12 15.08.17 040 (СВ) 20000 м    6/5 300 м кучево-дожд. 
[Cb calv]
+22.9 +10.7 46 +25  1023.7  0.5  749  276           
15 15.08.17 010 (С) 20000 м    3/3 600 м 
[Sc diur, vesp]
+22.5 +10.8 48 +25  1024  0.3  749  277           
21 15.08.17 050 (СВ) 10 км    ясно 
+15.8 +9.9 68 +18  1026.9  751  284           
00 16.08.17 040 (СВ) 10 км    9/9 600 м 
[Sc]
+13.8 +9.6 76 +15  1027.3  0.1  751  286           
03 16.08.17 030 (СВ) 10 км    8/8 600 м 
[Sc]
+12.6 +9.6 82 +14  1027.3  0.3  751  288  +11.5         
06 16.08.17 060 (СВ) 20000 м    1/0 средняя 
[Ac trans]
+17.8 +11.3 66 +22  1027.8  0.6  751  282  +11.5        влажная 
09 16.08.17 080 (В) 20000 м    8/8 300 м кучево-дожд. 
[Cb cap]
+22.7 +10.2 45 +24  1027  -0.4  751  278           
12 16.08.17 080 (В) 20000 м    6/6 300 м кучево-дожд. 
[Cb cap]
+24.4 +11.1 43 +27  1026.2  -0.7  751  276           
15 16.08.17 080 (В) 20000 м    3/3 600 м 
[Sc]
+24 +10.7 43 +26  1025.5  -0.7  750  276           
18 16.08.17 080 (В) 10 км    1/1 600 м 
[Sc]
+19.4 +12.6 65 +26  1026.1  0.2  750  280    +24.6       
21 16.08.17 130 (ЮВ) 10 км    3/0 средняя 
[Ac trans]
+17.5 +12 70 +22  1026.5  0.2  750  282           
00 17.08.17 140 (ЮВ) 10 км    3/0 средняя 
[Ac trans]
+15.8 +11.7 77 +20  1027  0.3  751  284           
03 17.08.17 130 (ЮВ) 10 км    3/3 600 м 
[Sc]
+15.9 +12.7 81 +22  1027.1  0.2  751  283  +14.9         
06 17.08.17 110 (В) 20000 м    ясно 
+20.7 +13.4 63 +27  1026.6  0.1  751  279  +14.9        влажная 
09 17.08.17 120 (ЮВ) 20000 м    8/8 600 м 
[Cu hum]
+23.2 +12.8 52 +28  1026.2  -0.2  751  276           
12 17.08.17 110 (В) 20000 м    9/6 300 м кучево-дожд., средняя 
[Cb cap|Ac trans]
+24.7 +12.1 45 +29  1025.2  -0.9  750  275           
15 17.08.17 110 (В) 20000 м    8/3 300 м кучево-дожд., средняя 
[Cb cap|Ac trans]
+24.9 +12.5 46 +30  1024.3  -0.8  749  274           
18 17.08.17 120 (ЮВ) 10 км    1/1 600 м 
[Sc]
+20.3 +12.2 60 +25  1025  0.3  750  279    +25.4       
21 17.08.17 150 (ЮВ) 10 км    ясно 
+17.7 +11.9 69 +23  1025.3  750  281           
00 18.08.17 160 (Ю) 10 км    3/0 средняя 
[Ac trans]
+16 +12 77 +21  1025.6  0.2  750  283           
03 18.08.17 150 (ЮВ) 10 км    9/8 300 м кучево-дожд., средняя 
[Cb cap|Ac trans]
+15.6 +12 79 +20  1025.6  750  283  +15.5         
06 18.08.17 160 (Ю) 20000 м    9/8 300 м кучево-дожд., средняя, верхняя 
[Cb cap|Ac trans|Ci fib]
+19.2 +13.2 68 +26  1025.6  0.2  750  280  +15.5        сухая 
Время (UTC), дата Ветер
(°,м/с) 
Видим.   Явления Облачность Т
(°С)
Тd
(°С)
f(%) Тe
(°С)
Pmin
(гПа)
dP
(гПа)
Po
(мм)
O2
(г/м3)
Тmin Tmax R s Состояние
почвы

Для получения пояснительной информации подведите курсор к названию столбца.

ПОГОДА в Кашире - архив

Всё, что Вы хотите узнать о погоде в Кашире - удобно и подробно!

Выберите нужную дату (начиная с 1 января 2015* года) и нажмите кнопку "Найти".
Будут отображены архивные сводки погоды по пункту Кашира, начиная с указанной даты.


Отображать данные в формате CSV (для использования в таблицах Excel)


Внимание! Наш архив погоды предназначен исключительно для личного некоммерческого использования в познавательных целях. Если Вам необходимы официальные справки о состоянии погоды (для производственных, юридических, коммерческих и т.п. целей), обращайтесь в органы Росгидромета.

*Примечание: данная дата относится к архиву по метеостанциям СССР (Россия, СНГ, Балтия).
Архив по метеостанциям Зарубежной Европы и Азии (кроме Китая) хранится 10 дней, по другим регионам земного шара (Китай, Африка, Америка, Австралия, Океания) - 1 день.

Кашира - район местоположения метеостанции


Название, широта, долгота, высота метеостанции:
Кашира 54.8°ш. 38.2°д. 221 м над ур. моря [Российская Федерация]

Дополнительная информация

В oтличие oт бoльшинства пoгoдных сайтoв мы публикуем пoдрoбную метеoинфoрмацию в детальнoм прoфессиoнальнoм фoрмате.

Характеристики температуры и влажнoсти вoздуха измеряются на высoте 2 м в тени вдали oт зданий и деревьев.
Скoрoсть ветра измеряется на высoте 10 м (на урoвне рoста челoвека скoрoсть ветра ниже в 1.5-2 раза). Если метеoстанция нахoдится в гoрoде или в лесу, тo скoрoсть ветра занижена на 2-4 м/с пo сравнению с oткрытым местoм. Скoрoсть ветра над акватoриями крупных рек и oзёр, а также на вершинах хoлмoв на 2-5 м/с выше, чем в oбычных услoвиях.
Атмoсфернoе давление в разных тoчках местнoсти мoжет значительнo oтличаться oт давления на метеoстанции, в зависимoсти oт услoвий рельефа (при пoдъёме на 10 м давление пoнижается примернo на 1 мм рт.ст.).